When you browse on this site, cookies collect data to enhance your experience and personalize the content and advertising you see.
Visit our Privacy Policy to learn more. By continuing to use the site, you agree to this use of cookies and data.
  • In Romania
  • List of Countries
  • For 7 days
  • Water Temperature
  • Satellite Maps
  • Weather Map
  • Weather Widgets
  • user-avatar
    Login

    Hourly Weather Guruvayur

    Today, 22 April, Monday

    Time Temperature Precipitation Wind Pressure Humidity
    00:00 +30°C° 0 mm 3 mps 755 mmHg 79%
    01:00 +30°C° 0 mm 2 mps 754 mmHg 80%
    02:00 +29°C° 0 mm 2 mps 754 mmHg 81%
    03:00 +29°C° 0 mm 2 mps 754 mmHg 82%
    04:00 +29°C° 0 mm 2 mps 754 mmHg 83%
    05:00 +29°C° 0 mm 2 mps 754 mmHg 84%
    06:00 +30°C° 0 mm 2 mps 754 mmHg 79%
    07:00 +31°C° 0 mm 2 mps 755 mmHg 74%
    08:00 +32°C° 0 mm 2 mps 755 mmHg 70%
    09:00 +34°C° 0 mm 3 mps 755 mmHg 64%
    10:00 +36°C° 0 mm 3 mps 755 mmHg 57%
    11:00 +37°C° 0 mm 3 mps 755 mmHg 51%
    12:00 +37°C° 0 mm 4 mps 755 mmHg 51%
    13:00 +37°C° 0 mm 4 mps 754 mmHg 52%
    14:00 +37°C° 0 mm 5 mps 753 mmHg 52%
    15:00 +36°C° 0 mm 5 mps 753 mmHg 56%
    16:00 +35°C° 0 mm 5 mps 753 mmHg 60%
    17:00 +34°C° 0 mm 5 mps 753 mmHg 64%
    18:00 +34°C° 0 mm 4 mps 754 mmHg 68%
    19:00 +33°C° 0 mm 4 mps 754 mmHg 72%
    20:00 +31°C° 0 mm 3 mps 755 mmHg 76%
    21:00 +31°C° 0 mm 3 mps 755 mmHg 78%
    22:00 +31°C° 0 mm 2 mps 755 mmHg 79%
    23:00 +30°C° 0 mm 2 mps 756 mmHg 80%

    Tomorrow, 23 April, Tuesday

    Time Temperature Precipitation Wind Pressure Humidity
    00:00 +30°C° 0 mm 2 mps 755 mmHg 81%
    01:00 +30°C° 0 mm 2 mps 755 mmHg 81%
    02:00 +31°C° 0 mm 2 mps 754 mmHg 81%
    03:00 +30°C° 1.7 mm 2 mps 754 mmHg 84%
    04:00 +30°C° 1.7 mm 2 mps 755 mmHg 86%
    05:00 +29°C° 1.7 mm 2 mps 755 mmHg 88%
    06:00 +30°C° 0.6 mm 2 mps 755 mmHg 83%
    07:00 +31°C° 0.6 mm 2 mps 756 mmHg 78%
    08:00 +32°C° 0.6 mm 1 mps 757 mmHg 73%
    09:00 +35°C° 0.5 mm 2 mps 756 mmHg 65%
    10:00 +37°C° 0.5 mm 2 mps 756 mmHg 56%
    11:00 +38°C° 0.5 mm 2 mps 756 mmHg 48%
    12:00 +38°C° 0 mm 3 mps 755 mmHg 50%
    13:00 +38°C° 0 mm 4 mps 755 mmHg 52%
    14:00 +39°C° 0 mm 5 mps 754 mmHg 54%
    15:00 +37°C° 0 mm 5 mps 754 mmHg 59%
    16:00 +36°C° 0 mm 4 mps 753 mmHg 64%
    17:00 +34°C° 0 mm 4 mps 753 mmHg 69%
    18:00 +34°C° 0 mm 4 mps 754 mmHg 73%
    19:00 +33°C° 0 mm 3 mps 755 mmHg 76%
    20:00 +31°C° 0 mm 3 mps 756 mmHg 79%
    21:00 +31°C° 0 mm 3 mps 756 mmHg 81%
    22:00 +31°C° 0 mm 2 mps 756 mmHg 83%
    23:00 +30°C° 0 mm 2 mps 757 mmHg 85%

    Day after tomorrow, 24 April, Wednesday

    Time Temperature Precipitation Wind Pressure Humidity
    00:00 +30°C° 1.6 mm 2 mps 756 mmHg 87%
    01:00 +30°C° 1.6 mm 2 mps 756 mmHg 88%
    02:00 +29°C° 1.6 mm 2 mps 755 mmHg 90%
    03:00 +29°C° 0.8 mm 2 mps 755 mmHg 89%
    04:00 +29°C° 0.8 mm 2 mps 755 mmHg 88%
    05:00 +29°C° 0.8 mm 2 mps 755 mmHg 88%
    06:00 +30°C° 0 mm 2 mps 756 mmHg 82%
    07:00 +31°C° 0 mm 2 mps 757 mmHg 76%
    08:00 +32°C° 0 mm 1 mps 757 mmHg 69%
    09:00 +34°C° 0 mm 1 mps 757 mmHg 60%
    10:00 +36°C° 0 mm 1 mps 757 mmHg 50%
    11:00 +39°C° 0 mm 1 mps 757 mmHg 41%
    12:00 +40°C° 0 mm 2 mps 756 mmHg 40%
    13:00 +42°C° 0 mm 3 mps 755 mmHg 39%
    14:00 +42°C° 0 mm 3 mps 754 mmHg 39%
    15:00 +39°C° 0 mm 3 mps 754 mmHg 45%
    16:00 +37°C° 0 mm 4 mps 754 mmHg 51%
    17:00 +35°C° 0 mm 4 mps 753 mmHg 58%
    18:00 +35°C° 0 mm 3 mps 754 mmHg 64%
    19:00 +34°C° 0 mm 3 mps 755 mmHg 70%
    20:00 +32°C° 0 mm 2 mps 756 mmHg 76%
    21:00 +31°C° 0.8 mm 2 mps 756 mmHg 79%
    22:00 +31°C° 0.8 mm 2 mps 756 mmHg 82%
    23:00 +30°C° 0.8 mm 1 mps 757 mmHg 85%

    25 April, Thursday

    Time Temperature Precipitation Wind Pressure Humidity
    00:00 +30°C° 0.1 mm 1 mps 756 mmHg 86%
    01:00 +30°C° 0.1 mm 1 mps 756 mmHg 87%
    02:00 +28°C° 0.1 mm 0 mps 755 mmHg 88%
    03:00 +27°C° 0.1 mm 0 mps 756 mmHg 89%
    04:00 +29°C° 0.1 mm 1 mps 756 mmHg 90%
    05:00 +29°C° 0.1 mm 1 mps 756 mmHg 91%
    06:00 +30°C° 0 mm 1 mps 757 mmHg 86%
    07:00 +32°C° 0 mm 1 mps 757 mmHg 80%
    08:00 +33°C° 0 mm 1 mps 758 mmHg 74%
    09:00 +35°C° 0 mm 1 mps 757 mmHg 65%
    10:00 +37°C° 0 mm 1 mps 757 mmHg 56%
    11:00 +40°C° 0 mm 1 mps 757 mmHg 47%
    12:00 +40°C° 0 mm 2 mps 756 mmHg 47%
    13:00 +39°C° 0 mm 3 mps 755 mmHg 48%
    14:00 +40°C° 0 mm 4 mps 754 mmHg 48%
    15:00 +38°C° 0 mm 4 mps 754 mmHg 54%
    16:00 +36°C° 0 mm 4 mps 754 mmHg 59%
    17:00 +35°C° 0 mm 4 mps 754 mmHg 65%
    18:00 +34°C° 0 mm 3 mps 755 mmHg 69%
    19:00 +33°C° 0 mm 3 mps 755 mmHg 73%
    20:00 +32°C° 0 mm 2 mps 756 mmHg 77%
    21:00 +31°C° 0.1 mm 2 mps 756 mmHg 78%
    22:00 +31°C° 0.1 mm 1 mps 756 mmHg 80%
    23:00 +31°C° 0.1 mm 1 mps 756 mmHg 81%

    26 April, Friday

    Time Temperature Precipitation Wind Pressure Humidity
    00:00 +31°C° 0.1 mm 1 mps 756 mmHg 83%
    01:00 +30°C° 0.1 mm 1 mps 756 mmHg 85%
    02:00 +30°C° 0.1 mm 1 mps 755 mmHg 87%
    03:00 +30°C° 0.2 mm 1 mps 755 mmHg 88%
    04:00 +30°C° 0.2 mm 1 mps 755 mmHg 89%
    05:00 +29°C° 0.2 mm 1 mps 755 mmHg 90%
    06:00 +30°C° 0.1 mm 1 mps 756 mmHg 85%
    07:00 +32°C° 0.1 mm 1 mps 756 mmHg 79%
    08:00 +33°C° 0.1 mm 1 mps 757 mmHg 74%
    09:00 +34°C° 0 mm 1 mps 757 mmHg 67%
    10:00 +37°C° 0 mm 2 mps 757 mmHg 60%
    11:00 +38°C° 0 mm 2 mps 756 mmHg 53%
    12:00 +38°C° 0 mm 3 mps 756 mmHg 53%
    13:00 +38°C° 0 mm 3 mps 755 mmHg 54%
    14:00 +38°C° 0 mm 4 mps 754 mmHg 54%
    15:00 +37°C° 0 mm 4 mps 754 mmHg 57%
    16:00 +36°C° 0 mm 4 mps 754 mmHg 61%
    17:00 +35°C° 0 mm 3 mps 754 mmHg 64%
    18:00 +34°C° 0 mm 3 mps 755 mmHg 68%
    19:00 +32°C° 0 mm 2 mps 755 mmHg 72%
    20:00 +31°C° 0 mm 2 mps 756 mmHg 75%
    21:00 +31°C° 0 mm 2 mps 756 mmHg 77%
    22:00 +31°C° 0 mm 1 mps 757 mmHg 79%
    23:00 +31°C° 0 mm 1 mps 757 mmHg 80%

    27 April, Saturday

    Time Temperature Precipitation Wind Pressure Humidity
    00:00 +30°C° 0 mm 1 mps 756 mmHg 82%
    01:00 +30°C° 0 mm 1 mps 756 mmHg 84%
    02:00 +30°C° 0 mm 1 mps 755 mmHg 85%
    03:00 +30°C° 0 mm 1 mps 756 mmHg 86%
    04:00 +29°C° 0 mm 1 mps 756 mmHg 87%
    05:00 +29°C° 0 mm 2 mps 756 mmHg 88%
    06:00 +30°C° 0 mm 2 mps 756 mmHg 83%
    07:00 +31°C° 0 mm 2 mps 757 mmHg 78%
    08:00 +32°C° 0 mm 2 mps 757 mmHg 73%
    09:00 +35°C° 0 mm 2 mps 757 mmHg 67%
    10:00 +36°C° 0 mm 3 mps 757 mmHg 62%
    11:00 +37°C° 0 mm 3 mps 757 mmHg 57%
    12:00 +37°C° 0 mm 4 mps 756 mmHg 57%
    13:00 +37°C° 0 mm 4 mps 755 mmHg 58%
    14:00 +36°C° 0 mm 4 mps 754 mmHg 59%
    15:00 +36°C° 0 mm 4 mps 754 mmHg 61%
    16:00 +35°C° 0 mm 4 mps 754 mmHg 63%
    17:00 +35°C° 0 mm 4 mps 754 mmHg 65%
    18:00 +34°C° 0 mm 3 mps 755 mmHg 69%
    19:00 +33°C° 0 mm 3 mps 756 mmHg 73%
    20:00 +31°C° 0 mm 2 mps 757 mmHg 78%
    21:00 +31°C° 0 mm 2 mps 757 mmHg 79%
    22:00 +31°C° 0 mm 2 mps 757 mmHg 81%
    23:00 +30°C° 0 mm 2 mps 757 mmHg 82%
    Show more